Farmington, MO

11:21 PM CST on December 15, 2019 (GMT -0600)
Farmington Regional

Weather History for KFAM - October, 2019

Change the Weather History Date:

Sunday, October 27, 2019

  Actual Average Record
Temperature  
Mean Temperature 54 °F -  
Max Temperature 66 °F 62 °F 80 °F (1999)
Min Temperature 42 °F 44 °F 28 °F (1997)
Degree Days  
Heating Degree Days 11    
Growing Degree Days 4 (Base 50)    
Moisture  
Dew Point 48 °F    
Average Humidity 91    
Maximum Humidity 100    
Minimum Humidity 56    
Precipitation  
Precipitation 0.00 in - - ()
Sea Level Pressure  
Sea Level Pressure 30.00 in    
Wind  
Wind Speed 5 mph (South)    
Max Wind Speed 15 mph    
Max Gust Speed -    
Visibility 6 miles    
Events Fog    
Averages and records for this station are not official NWS values.
T = Trace of Precipitation, MM = Missing Value Source: NWS Daily Summary

Daily Weather History Graph

Daily Weather History Graph

Search for Another Location

Airport or City:

Astronomy

Oct. 27, 2019 Rise Set
Actual Time 7:21 AM CDT 6:08 PM CDT
Civil Twilight 6:54 AM CDT 6:35 PM CDT
Nautical Twilight 6:23 AM CDT 7:06 PM CDT
Astronomical Twilight 5:53 AM CDT 7:37 PM CDT
Moon 6:32 AM CDT (10/27) 6:17 PM CDT (10/27)
Length of Visible Light 11h 41m
Length of Day
10h 47m
Waning Crescent, 0% of the Moon is Illuminated
Oct 27
Waning Crescent
Oct 27
New
Nov 4
First Quarter
Nov 12
Full
Nov 19
Last Quarter

Hourly Weather History & Observations

Time (CDT) Temp. Windchill Dew Point Humidity Pressure Visibility Wind Dir Wind Speed Gust Speed Precip Events Conditions
12:56 AM 48.0 °F - 46.9 °F 96% 29.86 in 10.0 mi West 4.6 mph - N/A   Overcast
1:56 AM 48.0 °F - 46.0 °F 93% 29.90 in 10.0 mi WSW 6.9 mph - N/A   Overcast
2:56 AM 46.0 °F 44.8 °F 45.0 °F 96% 29.92 in 10.0 mi SW 3.5 mph - N/A   Mostly Cloudy
3:56 AM 45.0 °F 43.5 °F 45.0 °F 100% 29.93 in 8.0 mi South 3.5 mph - N/A   Mostly Cloudy
4:08 AM 44.6 °F 43.1 °F 44.6 °F 100% 29.90 in 6.0 mi SSW 3.5 mph - N/A   Partly Cloudy
5:56 AM 42.1 °F 39.2 °F 42.1 °F 100% 29.97 in 3.0 mi South 4.6 mph - N/A   Clear
6:09 AM 42.8 °F 39.3 °F 42.8 °F 100% 29.94 in 4.0 mi SSE 5.8 mph - N/A   Scattered Clouds
6:19 AM 42.8 °F 39.3 °F 42.8 °F 100% 29.95 in 2.5 mi South 5.8 mph - N/A   Mostly Cloudy
6:27 AM 44.6 °F 43.1 °F 44.6 °F 100% 29.95 in 0.5 mi South 3.5 mph - N/A Fog Fog
6:38 AM 44.6 °F 42.2 °F 44.6 °F 100% 29.95 in 0.2 mi South 4.6 mph - N/A Fog Fog
6:56 AM 44.1 °F 41.5 °F 44.1 °F 100% 30.00 in 0.2 mi SSW 4.6 mph - N/A Fog Fog
8:56 AM 45.0 °F 42.6 °F 45.0 °F 100% 30.04 in 0.2 mi SW 4.6 mph - N/A Fog Fog
9:12 AM 46.4 °F 43.5 °F 46.4 °F 100% 30.01 in 0.8 mi SSW 5.8 mph - N/A   Overcast
9:21 AM 46.4 °F 44.3 °F 46.4 °F 100% 30.01 in 0.5 mi South 4.6 mph - N/A Fog Fog
9:36 AM 46.4 °F 43.5 °F 46.4 °F 100% 30.02 in 1.0 mi South 5.8 mph - N/A   Overcast
9:44 AM 46.4 °F 45.2 °F 46.4 °F 100% 30.02 in 1.5 mi SSW 3.5 mph - N/A   Overcast
9:56 AM 48.0 °F - 48.0 °F 100% 30.06 in 1.0 mi SSW 4.6 mph - N/A   Overcast
10:06 AM 48.2 °F - 48.2 °F 100% 30.02 in 1.8 mi South 4.6 mph - N/A   Overcast
10:10 AM 48.2 °F - 48.2 °F 100% 30.02 in 3.0 mi South 3.5 mph - N/A   Overcast
10:56 AM 52.0 °F - 51.1 °F 97% 30.06 in 10.0 mi South 5.8 mph - N/A   Mostly Cloudy
11:04 AM 51.8 °F - 51.8 °F 100% 30.03 in 10.0 mi South 5.8 mph - N/A   Partly Cloudy
11:56 AM 57.9 °F - 52.0 °F 81% 30.05 in 10.0 mi South 4.6 mph - N/A   Clear
12:56 PM 63.0 °F - 52.0 °F 67% 30.04 in 10.0 mi South 5.8 mph - N/A   Clear
1:56 PM 64.9 °F - 51.1 °F 61% 30.02 in 10.0 mi South 11.5 mph - N/A   Clear
3:56 PM 66.0 °F - 50.0 °F 56% 30.02 in 10.0 mi SSE 8.1 mph - N/A   Clear
4:56 PM 64.9 °F - 50.0 °F 58% 30.02 in 10.0 mi South 6.9 mph - N/A   Clear
5:56 PM 62.1 °F - 48.9 °F 62% 30.04 in 10.0 mi South 6.9 mph - N/A   Clear
6:56 PM 57.9 °F - 48.9 °F 72% 30.05 in 10.0 mi SE 4.6 mph - N/A   Clear
7:56 PM 55.0 °F - 48.0 °F 77% 30.06 in 10.0 mi SSE 3.5 mph - N/A   Clear
8:56 PM 53.1 °F - 48.9 °F 86% 30.06 in 10.0 mi South 5.8 mph - N/A   Clear
9:39 PM 53.6 °F - 51.8 °F 94% 30.03 in 10.0 mi South 8.1 mph - N/A   Mostly Cloudy
9:56 PM 54.0 °F - 52.0 °F 93% 30.06 in 10.0 mi South 15.0 mph - N/A   Overcast
10:56 PM 53.1 °F - 52.0 °F 96% 30.06 in 10.0 mi South 11.5 mph - N/A   Overcast
11:56 PM 53.1 °F - 51.1 °F 93% 30.07 in 10.0 mi South 11.5 mph - N/A   Overcast